WESTFORD NEEDLES, 18615

Orbit data source: Space-Track

WESTFORD NEEDLES, 18615 is space debris in LEO originally from a launch on Thu, 09 May 1963 UTC launched from the Air Force Western Test Range (AFWTR). Debris objects in space refer to the collection of defunct objects orbiting the Earth. Examples of debris include non-operational satellites, rocket bodies, and fragments generated from explosions, collisions, or faulty payload assembly.

Loading next visibility...
Identifier
18615, 1963-014DK
Orbit
LEO
Country
Flag of USUS
Related business
Manufacturer
Unknown
Mission
Spacecraft
Bus & Motor
Unknown
Mass
Unknown
Launch date (UTC)
1963-05-09 (62 years ago)
Launch vehicle
Unknown
Launch site
Air Force Western Test Range (AFWTR)
Object type
Payload
Rocket body
Debris
Shape & HBR
Unknown shape, 0.2 m
Radar Cross Section
Small (<0.1 m²)

Expand to show TLE details & history
Last TLE update: 21 hours ago

TLE from 21 hours ago
0 WESTFORD NEEDLES
1 18615U 63014DK  25288.88040622  .00000419  00000-0  43161-1 0  9990
2 18615  86.5302 138.8254 1662186  19.4111   2.1805  8.75205484 21748
Epoch: 2025-10-15T21:07Z
TLE epoch observation values (Epoch: 2025-10-15T21:07:47.097Z)
Latitude
22.47901°
Longitude
158.66179°
Altitude
1,918.575 km
Speed
7.488 km/s
True Right ascension
09h 21m 01s
True Declination
22° 22' 29"
Sunlit
Object was in daylight at epoch
Visualization orbit readout
Latitude
Unknown
Longitude
Unknown
Altitude
Unknown
Speed
Unknown
Apparent Right ascension
Unknown
Apparent Declination
Unknown
Sunlit
N/A
Visualization observer readout
Local Sidereal Time
13:11:04
Azimuth
Unknown
Elevation
Unknown
Doppler factor
Unknown
Orbital elements
Apogee altitude
5,218.775 km
Perigee altitude
1,913.009 km
Semi-major axis
9,944.029 km
Eccentricity
0.16622
Inclination
86.5302°
RAAN
138.8254°
Arg. of periapsis
19.4111°
True anomaly
3.09249°
Mean anomaly
2.1805°
Eccentric anomaly
2.61501°
Mean motion
2.18877 °/min
Orbital period
164.48 mins
BSTAR
0.043161

Documentation

Showing up to 5 results
|